[[{"header":{"parameterUnit":"m.s-1","parameterCategory":1,"la1":30.2991,"la2":30.254,"lo1":-89.0895,"lo2":-89.0444,"dy":0.0017,"dx":0.0017,"nx":28,"ny":28,"refTime":"2023-10-19T03:00:00:Z","depth":0,"parameterNumber":2,"parameterNumberName":"U-component_of_WINDS"},"data":[0,0,0,0,0,0,0,0,0,0,0,0,0,0,0,0,0,0,0,0,0,0,0,0,0,0,0,0,0,0,0,0,0,0,0,0,0,0,0,0,0,0,0,0,0,0,0,0,0,0,0,0,0,0,0,0,0,0,3.7745,3.7747,0,3.7956,3.7959,3.7961,3.7957,3.7954,3.7951,3.7948,3.8171,3.8179,3.8188,0,0,0,0,0,0,0,0,0,0,0,0,0,3.7342,3.7349,3.7744,3.7747,3.775,3.7956,3.7959,3.7962,3.7957,3.7953,3.795,3.7947,3.8168,3.8178,3.8188,0,0,0,0,0,0,0,0,0,0,0,0,0,3.7532,3.7352,3.7744,3.7772,3.7777,3.7955,3.7959,3.7963,3.7958,3.7953,3.7949,3.7945,3.8164,3.8177,3.819,3.8356,0,0,3.8229,3.8235,0,0,0,0,0,0,0,0,3.7521,3.7546,3.7765,3.777,3.7776,3.7925,3.7899,3.8095,3.7959,3.7889,3.7948,3.7943,3.8093,3.8111,3.8161,3.8366,3.8376,3.823,3.8238,3.8244,3.8247,0,0,0,0,0,0,0,3.7508,3.7537,3.7828,3.7769,3.7775,3.7776,3.7798,3.7936,3.8013,3.7895,3.7895,3.792,3.8095,3.8148,3.8166,3.8379,3.823,3.8241,3.8249,3.8254,3.8733,3.8738,0,0,0,0,0,0,3.7488,3.7526,3.7822,3.7835,3.7635,3.7787,3.7812,3.7882,3.8011,3.8027,3.7923,3.7919,3.8128,3.8151,3.8174,3.8377,3.8244,3.8256,3.8263,3.8728,3.8734,3.8739,0,0,0,0,0,0,3.7479,3.7514,3.7813,3.7681,3.7719,3.7798,3.7877,3.7888,3.7942,3.8033,3.8047,3.7963,3.8126,3.8156,3.8311,3.8385,3.8262,3.8273,3.8722,3.873,3.8737,3.8784,0,0,0,0,0,0,3.7468,3.7511,3.7574,3.7682,3.7726,3.7944,3.7882,3.7896,3.7963,3.7959,3.8074,3.8089,3.8125,3.8291,3.8323,3.84,3.8283,3.8716,3.8726,3.8734,3.8776,3.8792,3.8806,0,0,0,0,0,3.7453,3.758,3.7577,3.7613,3.7805,3.7949,3.7974,3.8011,3.7969,3.8034,3.8092,3.8085,3.8371,3.8307,3.8343,3.8425,3.8711,3.8723,3.8734,3.877,3.8789,3.8806,0,0,0,0,0,0,3.748,3.7595,3.7592,3.7757,3.7843,3.7947,3.803,3.803,3.8131,3.8124,3.8167,3.8193,3.8348,3.8403,3.8329,3.8593,3.8536,3.8555,3.8552,3.8571,3.8585,3.8569,3.8294,0,0,0,0,0,3.7505,3.761,3.7705,3.7841,3.7884,3.795,3.8014,3.8035,3.8126,3.8163,3.8233,3.8323,3.8434,3.8506,3.8612,3.8785,3.881,3.8859,3.8874,3.8886,3.8901,3.8997,3.902,3.8776,3.8776,3.8776,0,0,3.7557,3.7633,3.7697,3.7849,3.7917,3.8027,3.798,3.8098,3.818,3.8181,3.8331,3.8386,3.849,3.8654,3.873,3.8704,3.8974,3.89,3.8908,3.8918,3.9011,3.9034,3.9054,3.8784,3.8782,3.8781,0,0,3.7709,3.7777,3.7897,3.7967,3.8071,3.8114,3.8143,3.8248,3.8284,3.8435,3.8438,3.8538,3.8727,3.8801,3.8863,3.9044,3.9041,3.9078,3.9155,3.9247,3.9267,3.9284,3.9348,3.9371,3.9093,3.9093,3.9093,0,3.7762,3.7924,3.796,3.8078,3.8145,3.815,3.8273,3.834,3.8475,3.8522,3.8491,3.8728,3.8799,3.898,3.9024,3.9075,3.9111,3.9064,3.9261,3.9278,3.9295,3.9357,3.9381,3.9097,3.9096,3.9096,3.9096,0,3.7984,3.8097,3.8183,3.831,3.8387,3.8508,3.8563,3.8638,3.8653,3.8699,3.8853,3.8938,3.9062,3.9107,3.9124,3.9292,3.9273,3.9251,3.9194,3.9321,3.938,3.9404,3.9102,3.9101,3.91,3.9099,0,0,3.8157,3.8303,3.8333,3.8391,3.8507,3.8596,3.8718,3.8837,3.89,3.8994,3.9097,3.9258,3.9238,3.9309,3.9334,3.9416,3.9553,3.9384,3.9387,3.9412,3.9744,3.9759,3.9786,3.9553,3.9558,3.9561,3.9735,0,3.832,3.8532,3.8569,3.8756,3.8861,3.8868,3.8974,3.9058,3.9105,3.9203,3.9257,3.9369,3.9335,3.9378,3.9459,3.9519,3.962,3.9507,3.9651,3.9655,3.9623,3.9816,3.9832,3.9992,3.9758,3.9762,3.9765,0,3.8538,3.8634,3.8831,3.8933,3.8979,3.9073,3.9186,3.9279,3.9375,3.9404,3.9483,3.9499,3.9628,3.9566,3.9744,3.9667,3.9728,3.9767,3.9774,3.9788,3.9717,3.9835,4.0044,4.0068,3.9802,3.9799,3.9796,0,3.8643,3.8823,3.8964,3.9014,3.9136,3.9202,3.9257,3.9349,3.9418,3.9518,3.9563,3.9678,3.974,3.9829,3.9876,3.9827,4.0051,3.9993,4.0079,4.0078,4.0125,4.0121,4.0346,4.0166,4.0166,4.0166,4.0165,0,3.882,3.894,3.9012,3.9099,3.9235,3.9277,3.941,3.9464,3.9546,3.9644,3.9659,3.9752,3.9808,3.991,3.9949,4.009,4.0119,4.0147,4.0155,4.0145,4.0141,4.0185,4.0174,4.0172,4.0171,4.0169,4.0168,0,3.8959,3.9013,3.9167,3.927,3.9299,3.9394,3.9484,3.9569,3.9617,3.9742,3.9774,3.9849,3.997,4.0026,4.0176,4.0201,4.0362,4.0364,4.0329,4.0332,4.0414,4.0405,4.0674,4.0712,4.0508,4.051,4.0511,0,3.9068,3.916,3.9273,3.9339,3.9395,3.9502,3.9572,3.9619,3.9692,3.9809,3.9881,4.0001,4.01,4.0293,4.0362,4.0477,4.0481,4.0568,4.0498,4.0485,4.0482,4.0475,4.0484,4.0579,4.0581,4.0583,4.0584,0,3.9255,3.9277,3.9377,3.9487,3.9571,3.966,3.9748,3.9802,3.9863,3.9945,4.0067,4.0144,4.0296,4.0416,4.0536,4.0594,4.06,4.0606,4.0632,4.0621,4.0597,4.061,4.0362,4.0599,4.0598,4.0596,4.0596,4.0595,3.9382,3.9465,3.9557,3.9668,3.9739,3.9821,3.9906,3.9964,4.0066,4.0192,4.0214,4.0344,4.044,4.0601,4.0664,4.0768,4.0748,4.0785,4.0795,4.0803,4.0807,4.0581,4.079,4.079,4.079,4.0789,4.0789,0,3.9569,3.9629,3.9731,3.9853,3.9941,3.9937,4.0035,4.0109,4.0223,4.0311,4.0407,4.0548,4.0665,4.0744,4.0863,4.0931,4.0937,4.0961,4.0956,4.0969,4.0819,4.0784,4.0954,4.0954,4.0954,4.0954,4.0954,4.0954,3.9677,3.9815,3.9849,4.0024,4.0083,4.0209,4.0265,4.0342,4.0412,4.0568,4.0664,4.0714,4.0799,4.0924,4.1032,4.1053,4.1095,4.112,4.114,4.0997,4.098,4.0963,4.0931,4.1129,4.1129,4.1282,4.1283,4.1284]},{"header":{"parameterUnit":"m.s-1","parameterCategory":1,"la1":30.2991,"la2":30.254,"lo1":-89.0895,"lo2":-89.0444,"dy":0.0017,"dx":0.0017,"nx":28,"ny":28,"refTime":"2023-10-19T03:00:00:Z","depth":0,"parameterNumber":3,"parameterNumberName":"V-component_of_WINDS"},"data":[0,0,0,0,0,0,0,0,0,0,0,0,0,0,0,0,0,0,0,0,0,0,0,0,0,0,0,0,0,0,0,0,0,0,0,0,0,0,0,0,0,0,0,0,0,0,0,0,0,0,0,0,0,0,0,0,0,0,1.8796,1.8797,0,1.8859,1.886,1.886,1.8835,1.8834,1.8832,1.8831,1.8897,1.89,1.8903,0,0,0,0,0,0,0,0,0,0,0,0,0,1.8656,1.8658,1.8796,1.8797,1.8798,1.8859,1.886,1.8861,1.8835,1.8834,1.8832,1.883,1.8896,1.89,1.8903,0,0,0,0,0,0,0,0,0,0,0,0,0,1.8717,1.8659,1.8796,1.8792,1.8793,1.8859,1.886,1.8861,1.8836,1.8833,1.8831,1.8829,1.8895,1.8899,1.8904,1.8978,0,0,1.8918,1.892,0,0,0,0,0,0,0,0,1.8714,1.8723,1.8792,1.8793,1.8793,1.8837,1.8834,1.89,1.8836,1.8819,1.8831,1.8828,1.8879,1.8885,1.8901,1.8981,1.8983,1.8919,1.8922,1.8924,1.8925,0,0,0,0,0,0,0,1.871,1.872,1.8821,1.8793,1.8794,1.8788,1.8794,1.8847,1.8861,1.8821,1.8819,1.8827,1.8879,1.8897,1.8903,1.8984,1.8919,1.8923,1.8926,1.8927,1.9128,1.913,0,0,0,0,0,0,1.8705,1.8716,1.8819,1.8823,1.8747,1.8792,1.88,1.8825,1.886,1.8863,1.8829,1.8825,1.889,1.8897,1.8905,1.8994,1.8924,1.8928,1.8931,1.9125,1.9128,1.9131,0,0,0,0,0,0,1.8702,1.8714,1.8816,1.8769,1.8782,1.8797,1.8826,1.8827,1.8846,1.8866,1.8869,1.8845,1.8888,1.8898,1.896,1.8996,1.893,1.8934,1.9122,1.9126,1.913,1.9172,0,0,0,0,0,0,1.8698,1.8714,1.8741,1.877,1.8784,1.887,1.8828,1.883,1.8854,1.885,1.8882,1.8885,1.8888,1.8953,1.8964,1.9001,1.8938,1.9119,1.9124,1.9128,1.9168,1.9177,1.9185,0,0,0,0,0,1.8693,1.8751,1.8743,1.8755,1.8819,1.8872,1.888,1.8881,1.8857,1.8885,1.8898,1.8884,1.899,1.8959,1.8972,1.9011,1.9117,1.9123,1.9128,1.9164,1.9175,1.9185,0,0,0,0,0,0,1.8727,1.8755,1.8746,1.8815,1.8841,1.8867,1.8903,1.8893,1.8928,1.8923,1.8923,1.8931,1.8994,1.9009,1.8974,1.9084,1.905,1.9058,1.9073,1.9084,1.9092,1.9088,1.8942,0,0,0,0,0,1.8742,1.8782,1.8804,1.8863,1.8877,1.8888,1.8911,1.8909,1.8937,1.8948,1.8965,1.8993,1.9033,1.9059,1.9096,1.917,1.9176,1.9203,1.9211,1.9218,1.9226,1.9266,1.9278,1.9149,1.9149,1.9149,0,0,1.8775,1.8795,1.882,1.887,1.889,1.8932,1.8897,1.8943,1.8974,1.8955,1.9014,1.9028,1.9059,1.9126,1.9157,1.9141,1.9263,1.9225,1.9231,1.9235,1.9273,1.9285,1.9296,1.9153,1.9152,1.9152,0,0,1.8855,1.8874,1.8925,1.8946,1.8977,1.8984,1.8996,1.9024,1.9032,1.9091,1.9078,1.9115,1.9183,1.9206,1.9226,1.9315,1.9304,1.9327,1.9373,1.9412,1.9422,1.9431,1.9464,1.9475,1.9335,1.9335,1.9335,0,1.8892,1.8953,1.8953,1.8999,1.9022,1.9006,1.9058,1.9079,1.9121,1.9137,1.9117,1.9202,1.9222,1.9295,1.9317,1.9334,1.9348,1.9324,1.9421,1.943,1.9438,1.9469,1.9481,1.9338,1.9337,1.9337,1.9337,0,1.8997,1.904,1.9078,1.9118,1.9145,1.9194,1.9201,1.9229,1.9225,1.9234,1.9295,1.9318,1.936,1.9377,1.9374,1.945,1.9439,1.942,1.9385,1.9453,1.9482,1.9494,1.9341,1.9341,1.934,1.9339,0,0,1.9101,1.914,1.9154,1.9172,1.9205,1.9238,1.9287,1.9327,1.9351,1.9381,1.9422,1.948,1.9463,1.9486,1.9485,1.952,1.9589,1.9497,1.9498,1.9514,1.9675,1.9689,1.9703,1.9582,1.9584,1.9586,1.9673,0,1.9184,1.9269,1.9269,1.9348,1.9388,1.9373,1.9416,1.9441,1.9451,1.9487,1.9498,1.9539,1.9513,1.9527,1.956,1.9574,1.9622,1.9567,1.9621,1.9623,1.9614,1.9718,1.9733,1.9814,1.9684,1.9686,1.9687,0,1.9292,1.9325,1.9407,1.9434,1.9451,1.9489,1.9527,1.9561,1.9589,1.9594,1.962,1.9614,1.9664,1.9628,1.9697,1.966,1.9682,1.9692,1.9695,1.9701,1.966,1.9727,1.984,1.9853,1.9705,1.9704,1.9702,0,1.9361,1.9425,1.9482,1.9498,1.9531,1.9558,1.9574,1.96,1.9624,1.9657,1.9673,1.9711,1.9733,1.9763,1.9768,1.974,1.9838,1.9801,1.9844,1.9844,1.9866,1.9864,1.9984,1.9879,1.9878,1.9878,1.9878,0,1.9454,1.9505,1.9513,1.9549,1.9606,1.9606,1.9663,1.9676,1.9699,1.9737,1.9727,1.9763,1.9767,1.9805,1.9809,1.9866,1.9876,1.9882,1.9882,1.9883,1.9882,1.9898,1.9893,1.9881,1.9881,1.988,1.9879,0,1.954,1.9547,1.9609,1.9635,1.9643,1.9684,1.9706,1.9741,1.9749,1.9798,1.9809,1.9823,1.9867,1.9875,1.9926,1.9929,1.9998,1.9992,1.9988,1.9988,2.003,2.0026,2.0165,2.0183,2.0065,2.0066,2.0067,0,1.9599,1.9638,1.9668,1.9692,1.9709,1.9749,1.9773,1.9776,1.9802,1.9837,1.9867,1.991,1.9944,2.0015,2.003,2.0069,2.0065,2.0111,2.0071,2.0071,2.0067,2.0064,2.0069,2.0119,2.012,2.0121,2.0122,0,1.9703,1.9705,1.9741,1.9778,1.9808,1.9838,1.9866,1.9887,1.9893,1.9923,1.9967,1.9994,2.0046,2.0089,2.0128,2.0144,2.0135,2.0134,2.0146,2.0148,2.0144,2.0147,2.001,2.0131,2.013,2.013,2.0129,2.0129,1.9778,1.9812,1.9838,1.9879,1.99,1.9927,1.996,1.9973,2.001,2.0053,2.0052,2.0101,2.0128,2.018,2.0199,2.0237,2.0223,2.024,2.0245,2.0249,2.0253,2.0137,2.0244,2.0244,2.0244,2.0244,2.0244,0,1.9882,1.9898,1.9936,1.9975,2.0007,1.9994,2.0025,2.0053,2.0096,2.0122,2.0156,2.0207,2.0248,2.0267,2.0308,2.0335,2.0332,2.0346,2.0344,2.0348,2.0264,2.0249,2.0348,2.0348,2.0348,2.0348,2.0348,2.0348,1.994,1.9997,2.0002,2.007,2.0086,2.0133,2.0152,2.0177,2.0198,2.0256,2.029,2.0301,2.0325,2.0367,2.0405,2.0409,2.0425,2.0441,2.0444,2.0364,2.0354,2.0344,2.0331,2.0444,2.0445,2.0525,2.0526,2.0526]}]]